Change the Weather History Date:

Monday, March 5, 2012

  Actual Average Record
Temperature  
Mean Temperature 50 °F 54 °F  
Max Temperature 57 °F 61 °F 76 °F (1959)
Min Temperature 43 °F 47 °F 35 °F (1955)
Degree Days  
Heating Degree Days 15 11  
Month to date heating degree days 59 55  
Since 1 July heating degree days 1970 1861  
Cooling Degree Days 0 0  
Month to date cooling degree days 0 0  
Year to date cooling degree days 0 0  
Growing Degree Days 0 (Base 50)    
Moisture  
Dew Point 43 °F    
Average Humidity 77    
Maximum Humidity 93    
Minimum Humidity 61    
Precipitation  
Precipitation 0.00 in 0.11 in 0.99 in (1962)
Month to date precipitation 0.08 0.61  
Year to date precipitation 2.90 8.86  
Since 1 July precipitation 5.77 16.43  
Sea Level Pressure  
Sea Level Pressure 30.07 in    
Wind  
Wind Speed 16 mph (West)    
Max Wind Speed 32 mph    
Max Gust Speed 36 mph    
Visibility 10 miles    
Events      
T = Trace of Precipitation, MM = Missing Value Source: NWS Daily Summary

Daily Weather History Graph

Daily Weather History Graph

Search for Another Location

Airport or City:

Trip Planner

Search our weather history database for the weather conditions in past years. The results will help you decide how hot, cold, wet, or windy it might be!

Date:

Astronomy

Mar. 05, 2012 Rise Set
Actual Time 6:34 AM PST 6:07 PM PST
Civil Twilight 6:08 AM PST 6:33 PM PST
Nautical Twilight 5:37 AM PST 7:04 PM PST
Astronomical Twilight 5:07 AM PST 7:34 PM PST
Moon 3:34 PM PST (3/5) 4:34 AM PST (3/5)
Length of Visible Light 12h 25m
Length of Day
11h 33m
Waxing Gibbous, 91% of the Moon is Illuminated
Mar 5
Waxing Gibbous
Mar 8
Full
Mar 14
Last Quarter
Mar 22
New
Mar 30
First Quarter

Hourly Weather History & Observations

Time (PST) Temp. Windchill Dew Point Humidity Pressure Visibility Wind Dir Wind Speed Gust Speed Precip Events Conditions
12:56 AM 46.9 °F - 43.0 °F 86% 30.09 in 10.0 mi WNW 8.1 mph - N/A   Partly Cloudy
1:56 AM 46.0 °F 40.6 °F 43.0 °F 89% 30.09 in 10.0 mi West 11.5 mph - N/A   Partly Cloudy
2:56 AM 45.0 °F 40.1 °F 42.1 °F 90% 30.08 in 10.0 mi West 9.2 mph - N/A   Partly Cloudy
3:56 AM 45.0 °F 40.6 °F 42.1 °F 90% 30.07 in 10.0 mi West 8.1 mph - N/A   Partly Cloudy
4:56 AM 44.1 °F 39.5 °F 41.0 °F 89% 30.08 in 10.0 mi West 8.1 mph - N/A   Partly Cloudy
5:56 AM 44.1 °F 39.5 °F 41.0 °F 89% 30.08 in 10.0 mi West 8.1 mph - N/A   Scattered Clouds
6:56 AM 44.1 °F 39.5 °F 41.0 °F 89% 30.08 in 10.0 mi West 8.1 mph - N/A   Mostly Cloudy
7:56 AM 46.9 °F - 43.0 °F 86% 30.10 in 10.0 mi WNW 11.5 mph - N/A   Mostly Cloudy
8:56 AM 50.0 °F - 45.0 °F 83% 30.11 in 10.0 mi WNW 8.1 mph - N/A   Scattered Clouds
9:56 AM 50.0 °F - 44.1 °F 80% 30.12 in 10.0 mi WNW 13.8 mph - N/A   Partly Cloudy
10:56 AM 53.1 °F - 44.1 °F 71% 30.11 in 10.0 mi WNW 10.4 mph - N/A   Partly Cloudy
11:56 AM 53.1 °F - 44.1 °F 71% 30.11 in 10.0 mi WNW 17.3 mph - N/A   Partly Cloudy
12:56 PM 55.0 °F - 43.0 °F 64% 30.07 in 10.0 mi NW 18.4 mph - N/A   Partly Cloudy
1:56 PM 55.9 °F - 42.1 °F 60% 30.05 in 10.0 mi WNW 23.0 mph - N/A   Partly Cloudy
2:56 PM 55.9 °F - 42.1 °F 60% 30.05 in 10.0 mi WNW 18.4 mph - N/A   Partly Cloudy
3:56 PM 54.0 °F - 43.0 °F 66% 30.04 in 10.0 mi West 29.9 mph - N/A   Scattered Clouds
4:56 PM 51.1 °F - 44.1 °F 77% 30.04 in 10.0 mi West 28.8 mph - N/A   Partly Cloudy
5:53 PM 48.2 °F - 44.6 °F 87% 30.04 in 10.0 mi West 25.3 mph 34.5 mph N/A   Mostly Cloudy
5:56 PM 48.9 °F - 45.0 °F 86% 30.04 in 10.0 mi West 25.3 mph 33.4 mph N/A   Mostly Cloudy
6:56 PM 48.9 °F - 44.1 °F 83% 30.05 in 10.0 mi West 20.7 mph 27.6 mph N/A   Mostly Cloudy
7:56 PM 48.9 °F - 43.0 °F 80% 30.05 in 10.0 mi West 15.0 mph 26.5 mph N/A   Mostly Cloudy
8:56 PM 48.9 °F - 43.0 °F 80% 30.06 in 10.0 mi West 16.1 mph 26.5 mph N/A   Mostly Cloudy
9:56 PM 48.9 °F - 44.1 °F 83% 30.06 in 10.0 mi West 17.3 mph 23.0 mph N/A   Mostly Cloudy
10:56 PM 48.9 °F - 44.1 °F 83% 30.06 in 10.0 mi West 20.7 mph 26.5 mph N/A   Overcast
11:56 PM 50.0 °F - 44.1 °F 80% 30.04 in 10.0 mi West 17.3 mph 23.0 mph N/A   Overcast